Location: Mascot Post Office (historical)
(40.2645°N, 99.5462°W)
Time: 02:19:52
(UTC+00:00)

USA 215 - Pass Details

Date: 14 July 2020
Orbit: 1102 x 1106 km, 123.0° (Epoch: 08 August)

Event Time Altitude Azimuth Distance (km) Brightness Sun altitude
Rises 03:36:24 0° 58° (ENE) 3,922 6.0 -14.3°
Reaches altitude 10° 03:39:27 10° 71° (ENE) 2,960 5.3 -14.7°
Maximum altitude 03:44:35 24° 124° (ESE) 2,086 4.1 -15.3°
Enters shadow 03:46:27 21° 148° (SSE) 2,221 4.3 -15.6°
